Location: Quedlinburg
(51.7921°N, 11.1414°E)
Time: 01:35:03
(UTC+02:00)

BEESAT - Pass Details

Date: 16 March 2026
Orbit: 683 x 693 km, 98.4° (Epoch: 13 April)

Event Time Altitude Azimuth Distance (km) Brightness Sun altitude
Rises 00:01:52 0° 14° (NNE) 3,067 ? -39.8°
Reaches altitude 10° 00:04:07 10° 15° (NNE) 2,145 ? -39.9°
Enters shadow 00:04:37 13° 15° (NNE) 1,948 ? -39.9°
